408  
ASUS43 KFSD 181310  
RWRFSD  
 
WEATHER ROUNDUP FOR SE SOUTH DAKOTA/SW MINNESOTA/NW IOWA  
NATIONAL WEATHER SERVICE SIOUX FALLS SD  
700 AM CST SAT NOV 18 2017  
 
NOTE: "FAIR" INDICATES FEW OR NO CLOUDS BELOW 12,000 FEET WITH NO  
SIGNIFICANT WEATHER AND OR S TO VISIBILITY
.  
 
 
SDZ038>040-050-052>070-181400-  
SOUTHEAST SOUTH DAKOTA  
 
CITY SKY/WX TMP DP RH WIND PRES REMARKS
 
BROOKINGS CLEAR 24 20 84 N5 29.86R WCI 18  
CHAMBERLAIN CLEAR 34 33 94 NW9 29.97R WCI 27  
HURON CLEAR 19 16 88 NW7 29.94R WCI 10  
MADISON FAIR 27 23 86 N10 29.87R WCI 17  
MITCHELL CLEAR 24 20 84 NW9 29.94R WCI 14  
SIOUX FALLS MOCLDY 29 24 82 NW8 29.87R WCI 21  
WINNER FAIR 34 29 82 W10 30.00R WCI 26  
YANKTON CLOUDY 33 24 69 NW14 29.90R WCI 23  

 
 
MNZ071-072-080-081-089-090-097-098-181400-  
SOUTHWEST MINNESOTA  
 
CITY SKY/WX TMP DP RH WIND PRES REMARKS
 
FAIRMONT MOCLDY 29 25 85 NW17G23 29.79R WCI 17  
JACKSON CLOUDY 28 23 80 NW16 29.80R WCI 17  
LUVERNE PTCLDY 28 23 80 N6 29.86R WCI 22  
MARSHALL PTCLDY 23 19 85 NW9 29.87R WCI 13  
MONTEVIDEO PTCLDY 21 18 86 N9 29.87R WCI 11  
PIPESTONE CLOUDY 27 21 80 CALM 29.83R  
REDWOOD FALLS CLOUDY 25 19 78 NW12 29.83R WCI 14  
WINDOM N/A 27 14 59 NW20G25 29.81R WCI 13  
WORTHINGTON PTCLDY 27 21 78 NW17 29.82R WCI 14  

 
 
IAZ001>003-012>014-020>022-031-032-NEZ013-014-SDZ071-181400-  
NORTHWEST IOWA  
 
CITY SKY/WX TMP DP RH WIND PRES REMARKS
 
CHEROKEE CLOUDY 32 29 89 NW12 29.82R WCI 23  
DENISON CLOUDY 36 32 87 N16 29.79R  
ESTHERVILLE CLOUDY 28 27 96 NW17 29.79R WCI 16  
LE MARS CLOUDY 34 28 80 NW9 29.85R WCI 26  
ORANGE CITY CLOUDY 34 30 86 NW8G17 29.84R WCI 27  
SHELDON MOCLDY 30 25 80 N15 29.82R WCI 19  
SIOUX CITY CLOUDY 35 30 82 NW17 29.84R WCI 25  
SPENCER CLOUDY 30 24 78 N13 29.81R WCI 20  
STORM LAKE CLOUDY 32 28 86 N16 29.79R WCI 21  

 
 
ABBREVIATIONS USED IN REMARKS  
TC - TEMPERATURE IN CELSIUS  
WCI - WIND CHILL INDEX  
HX - HEAT INDEX  
VSB - VISIBILITY  
 
 
 
CLICK HERE TO GO TO PREVIOUS BULLETINS.

The Nexlab SD Page
The Nexlab IA Page
The Nexlab MN Page
The Nexlab NE Page Main Text Page